Location: Huesca
(42.1318°N, 0.4078°W)
Time: 05:00:29
(UTC+02:00)

RS-15 - Pass Details

Date: 30 April 2024
Orbit: 1896 x 2149 km, 64.8° (Epoch: 29 May)

Event Time Altitude Azimuth Distance (km) Brightness Sun altitude
Rises 05:43:34 0° 325° (NW) 5,389 10.4 -13.1°
Reaches altitude 10° 05:46:54 10° 326° (NW) 4,362 9.9 -12.6°
Maximum altitude 05:58:02 86° 240° (WSW) 1,911 7.9 -10.8°
Drops below altitude 10° 06:08:56 10° 152° (SSE) 4,275 9.8 -9.1°
Sets 06:12:09 0° 152° (SSE) 5,278 10.3 -8.6°
